Starlink 2379

operational
NORAD ID: 47798 Int'l Des: 2021-018 Owner: SPXS Country: US Constellation: starlink
LEOCIRCULARSTARLINK_TYPE

About Starlink 2379

Description loading...

Live Position

Loading 3D Globe...

Upcoming Passes

Altitude History

Altitude vs Time

uPlot chart will show altitude changes over time

Two-Line Element Set

1 47798U 21018M 26048.16828066 -.00001529 00000-0 -83796-4 0 9990
2 47798 53.0548 323.7417 0001490 84.8844 275.2315 15.06396420273787
Epoch: Feb 17, 2026 • Age: 20 hours

Current Status

Altitude 548.2 km
Velocity 7.59 km/s
Sub-Earth Point 29.32°N, 29.39°W
Launch Date Mar 11, 2021
Age 4.9 years
Type internet

Technical Details

Classification Payload
Mass 260.00 kg
Dry Mass 248.00 kg
Total Mass 260.00 kg
Length 0.20 m
Diameter 2.80 m
Span 9.00 m
Shape Box + pan
Manufacturer SPXS
Bus Type Starlink
Phase Status In Orbit
Owner/State SPXS/US

Large Constellations

Loading constellations...